{"data":{"norad_id":66370,"intl_designator":"2025-254Y","name":"STARLINK-35824","alt_names":[],"object_type":"PAYLOAD","status":"ACTIVE","operator":null,"country":"US","launch_date":"2025-11-06","launch_site_code":"AFWTR","launch_vehicle":null,"mission":null,"orbit_class":"UNKNOWN","rcs_meters":null,"size_class":null,"mass_kg":null,"dimensions":null,"purposes":["comms"],"wikipedia_slug":null,"has_3d_model":false,"image_url":null,"decayed_at":null,"tle_current":{"epoch":"2026-05-24T22:56:11.616000Z","epoch_age_seconds":79215,"freshness":"FRESH","line1":"1 66370U 25254Y   26144.95569000  .00014649  00000+0  50571-3 0  9995","line2":"2 66370  53.1562 235.9398 0000546  67.7864 292.3195 15.30202268 30685","mean_motion":15.30202268,"eccentricity":5.46e-5,"inclination_deg":53.1562,"raan_deg":235.9398,"arg_perigee_deg":67.7864,"mean_anomaly_deg":292.3195,"bstar":0.00050571,"rev_number":3068,"period_min":94.105206227547,"perigee_km":474.83410493525,"apogee_km":475.58249024175,"semimajor_km":6853.3452975885,"source":"CELESTRAK","updated_at":"2026-05-25T13:38:21.198328Z"}}}